GFSWCAN_prec_cthk_105.txt.gz
RH
67 69 67 71 64 58 54 46 43 48 45 43 46 50 56 59 64 69 61 64 67 67 62 65 67 71 71 70 78 76 75 79 84 89 97 98 92 81 83 86 96 97 81 62 61 67 57 39 47 50 72 74 72 72
64 65 68 66 69 68 59 54 46 41 43 42 49 52 57 66 65 71 65 66 69 70 58 56 69 76 73 71 69 73 74 79 86 93 96 96 91 92 89 88 91 97 91 69 46 40 34 44 60 66 72 67 66 64
67 67 73 75 74 71 62 56 53 42 43 46 51 51 69 70 64 65 66 70 72 69 60 69 67 60 62 66 68 69 67 71 76 87 90 90 98 95 96 95 97 96 90 80 57 40 48 63 65 76 74 70 77 77
75 67 66 68 73 68 61 58 55 47 45 50 51 58 72 69 59 64 66 72 76 80 85 74 67 65 62 61 59 56 60 65 71 78 86 83 91 81 93 97 97 99 99 92 74 71 60 72 82 80 82 89 84 80
78 64 58 54 57 63 71 60 57 50 44 47 48 72 70 64 60 66 73 78 83 90 93 85 80 77 78 75 60 60 58 62 68 78 84 86 87 84 91 97 96 96 99 96 94 95 97 93 85 82 84 85 84 77
72 64 57 59 64 63 64 62 57 49 43 42 65 83 78 70 68 82 88 85 86 91 95 90 80 84 79 84 62 63 63 65 69 77 81 84 83 88 95 92 89 88 99 98 98 98 96 96 96 85 88 88 83 76
70 61 55 63 72 68 67 63 57 45 42 65 82 88 95 89 84 83 86 89 88 95 95 92 83 74 64 65 70 68 68 70 68 73 76 80 81 81 88 86 85 96 98 98 97 98 99 99 99 98 98 91 84 77
61 55 54 71 75 73 70 61 51 44 69 82 87 89 97 98 97 86 85 96 99 99 99 88 84 78 81 86 79 75 69 70 65 67 74 79 75 72 80 79 84 94 92 97 96 95 98 98 94 93 88 82 79 74
53 50 60 75 73 72 60 52 54 74 89 98 98 95 96 97 94 83 90 97 99 99 93 85 85 87 85 89 90 88 73 73 70 77 79 79 79 75 75 78 79 88 91 92 94 97 94 90 88 84 81 74 72 70
46 50 58 62 63 65 60 69 85 98 98 99 99 97 90 88 89 94 99 98 99 96 88 82 82 85 88 93 97 96 87 77 75 71 72 76 70 64 66 69 73 78 82 83 84 83 81 82 80 78 72 70 69 67
58 63 65 66 62 56 78 95 98 98 99 98 94 93 92 93 97 99 98 96 92 85 78 77 77 83 90 96 97 97 89 83 69 62 64 67 65 61 64 67 71 79 81 79 78 78 80 77 73 71 73 70 66 68
65 65 59 60 76 93 98 98 99 98 97 88 86 93 99 96 98 98 96 95 84 78 71 71 76 81 91 96 98 98 97 95 93 87 80 72 69 73 74 74 77 82 86 83 78 75 73 70 69 69 68 66 66 68
88 92 96 97 98 98 98 98 99 99 97 96 97 98 96 94 98 94 91 91 79 71 72 74 80 80 90 95 98 98 98 98 98 98 97 95 92 87 86 83 80 82 83 79 77 74 72 70 68 68 67 66 66 68
98 98 98 98 98 98 98 99 99 98 96 97 96 96 93 92 90 84 80 80 75 77 80 79 81 87 88 96 96 92 96 98 98 92 91 92 92 97 96 94 90 87 85 81 79 77 75 74 73 71 69 68 68 68
98 98 99 99 99 98 99 99 99 97 96 97 91 91 89 86 83 84 84 83 80 83 87 90 89 88 94 90 95 95 94 95 91 90 90 89 91 93 92 90 89 86 85 82 77 75 72 71 69 68 67 67 66 66
98 98 97 98 97 99 99 98 98 93 91 87 86 88 87 87 88 90 96 93 87 89 94 99 97 94 91 89 87 90 91 90 90 91 91 91 91 92 91 89 86 82 80 76 72 69 66 64 63 62 62 63 63 62
92 93 97 99 98 99 99 96 93 92 89 89 91 88 88 89 94 92 94 93 94 95 95 95 95 95 97 95 91 90 89 90 92 93 92 92 93 90 88 86 86 83 78 74 70 67 64 63 63 64 65 68 69 69
88 94 97 95 92 97 97 94 92 91 93 92 91 93 95 97 97 97 94 93 94 97 96 94 92 93 94 92 92 93 91 90 94 93 90 87 89 90 88 88 87 84 81 76 71 67 66 69 70 71 73 75 77 78
87 90 95 97 95 92 94 91 83 91 92 92 94 94 93 94 93 93 92 92 92 93 94 92 89 89 88 88 88 88 90 92 93 93 93 93 92 92 89 87 85 84 81 77 74 75 76 77 79 79 81 82 82 84
87 90 95 95 94 89 88 89 86 85 91 90 89 89 90 91 90 90 89 89 89 89 90 89 89 90 93 95 94 95 94 95 96 96 95 94 93 91 90 90 88 85 83 82 82 84 86 86 85 86 86 87 89 90
90 92 95 94 87 88 88 83 86 85 86 87 88 88 88 85 83 82 81 82 83 85 86 85 87 92 95 97 96 96 96 98 97 97 97 96 95 95 94 93 91 90 90 90 89 91 93 92 91 91 92 94 95 96
87 86 88 87 86 85 86 84 85 86 86 88 88 84 84 83 80 78 78 79 83 86 87 89 91 93 95 97 97 97 98 97 96 96 97 97 97 97 96 96 97 97 96 96 96 97 97 98 97 96 95 94 95 96
84 80 80 81 82 80 82 87 86 88 90 92 91 91 93 93 91 86 89 94 95 96 95 96 97 97 98 98 98 97 98 98 98 98 98 98 98 98 99 99 99 99 98 98 98 98 98 98 98 97 96 95 94 95
80 79 81 80 81 89 90 89 89 90 91 93 94 97 96 93 89 90 95 97 98 98 98 97 97 96 96 95 92 88 85 83 79 77 76 76 76 77 77 79 82 85 89 91 92 93 94 95 95 95 95 96 97 97
78 82 82 84 83 84 88 90 91 90 93 90 88 88 88 84 86 81 73 64 59 56 55 54 51 49 48 49 50 51 52 53 54 55 58 59 62 64 66 67 68 71 74 77 78 78 79 81 84 86 89 92 93 93
79 80 79 80 79 77 79 79 80 80 80 79 75 63 50 45 45 46 44 43 44 44 44 44 43 44 46 47 49 50 51 53 55 55 58 60 63 65 66 67 68 72 74 77 78 78 78 80 83 85 88 90 90 90
66 72 70 70 72 72 73 67 61 56 52 49 50 43 36 39 39 40 41 40 40 41 43 44 44 44 45 46 48 49 51 52 54 56 59 63 66 68 69 70 72 75 77 78 78 79 81 83 85 87 88 89 89 89
63 66 65 59 55 53 51 48 42 40 41 39 35 37 38 37 39 39 38 38 39 40 41 41 41 40 39 40 43 46 50 52 54 57 60 63 66 69 72 74 76 78 80 81 81 81 82 85 87 88 88 88 85 83
54 50 46 46 42 38 40 39 40 39 37 34 34 37 37 37 37 36 37 38 39 39 40 40 40 39 38 34 31 38 44 47 48 50 52 53 53 53 55 59 63 67 70 74 78 81 82 84 85 84 81 77 75 74
47 38 37 41 43 45 42 41 39 37 35 31 31 35 36 38 38 37 39 39 40 41 41 42 42 41 39 37 36 36 40 44 46 47 47 46 44 45 48 51 54 59 60 61 62 64 66 67 68 69 69 67 67 68
38 35 37 43 46 46 45 41 37 33 32 33 33 32 35 40 40 40 40 40 39 39 39 40 40 40 37 35 37 37 38 38 39 38 36 36 36 36 37 39 42 45 48 53 55 57 60 62 63 63 63 64 63 63
37 36 39 44 47 46 44 41 38 37 38 37 37 35 37 38 39 40 41 42 42 41 42 42 41 38 35 33 33 34 33 31 32 33 34 34 35 35 36 37 38 39 39 40 40 42 43 45 47 48 50 52 53 53
38 36 38 43 47 48 48 47 43 42 41 42 40 39 40 39 42 43 44 45 46 45 43 43 41 37 34 32 31 30 29 32 34 36 36 37 39 40 40 41 41 40 41 42 43 44 46 47 49 49 49 47 45 43

GFSWCAN_prec_cthk_108.txt.gz
RH
71 70 73 68 69 73 71 65 53 44 52 44 45 48 52 61 55 54 65 77 74 65 51 58 65 68 71 68 64 61 69 77 74 83 90 95 94 88 86 82 78 75 81 81 63 58 54 37 54 65 68 75 82 85
75 77 76 75 72 79 77 69 60 52 50 53 46 47 54 59 61 55 73 76 71 66 55 59 59 55 60 69 71 68 69 79 77 85 87 87 93 97 91 96 88 96 98 88 67 51 32 33 48 55 64 63 74 77
67 79 78 76 76 79 78 71 67 59 53 47 48 46 55 58 59 71 77 71 70 67 60 58 50 58 66 64 68 69 71 74 74 83 87 87 89 92 90 87 98 94 97 96 79 55 48 46 48 63 84 77 84 85
77 81 77 74 70 78 79 77 74 67 57 51 45 47 61 60 59 77 68 65 71 70 67 59 65 67 61 61 63 63 65 70 75 77 81 84 86 84 88 87 95 97 97 98 86 74 62 51 68 86 91 89 90 88
79 80 84 75 74 79 78 80 78 70 59 50 48 58 59 62 77 73 67 68 73 80 87 82 76 67 68 73 65 64 63 65 69 75 78 83 84 92 88 95 98 98 98 98 99 86 88 84 88 95 92 89 95 92
94 83 78 77 73 80 83 84 78 70 61 51 50 57 63 73 75 73 72 74 77 88 97 89 75 70 74 82 80 68 68 70 70 71 77 79 78 88 86 89 95 93 98 98 97 94 93 93 93 93 92 93 95 94
86 85 83 75 64 65 70 73 80 78 67 53 48 51 63 80 80 71 81 92 87 92 97 94 85 74 78 75 77 73 72 76 75 74 70 73 75 77 80 82 84 92 98 98 97 98 98 98 98 99 99 96 95 88
90 83 81 71 62 65 68 65 75 78 65 49 49 68 84 96 89 76 85 99 99 98 99 93 82 79 81 86 75 77 79 81 78 77 70 70 72 77 76 77 85 88 97 98 98 97 98 98 98 98 94 87 84 87
89 83 78 68 66 68 71 75 77 70 60 50 81 92 98 98 94 85 93 96 98 99 96 91 87 82 84 90 93 91 89 81 71 74 71 71 76 76 73 74 76 77 84 90 90 90 95 94 95 95 92 90 87 84
83 77 71 68 72 75 81 79 74 68 61 93 98 99 94 93 95 97 99 99 99 97 94 87 81 83 85 92 95 96 92 85 74 67 70 73 75 71 69 63 65 71 74 78 77 79 81 83 86 81 82 82 81 78
74 66 57 66 70 76 80 77 65 74 96 97 97 98 97 98 98 98 98 98 98 92 83 78 78 79 84 92 97 98 98 96 87 77 73 71 67 64 59 59 62 69 73 75 78 79 76 76 74 73 70 70 69 69
51 47 56 63 65 71 76 72 92 97 94 95 98 98 99 99 98 98 98 98 91 82 71 74 76 79 85 94 98 98 98 96 86 87 82 77 72 70 71 72 72 73 75 78 79 78 75 72 67 64 65 65 65 65
41 51 60 62 63 68 64 89 96 96 99 99 99 98 96 96 99 93 91 93 83 75 76 76 78 82 87 97 97 99 98 95 98 98 91 95 96 89 85 83 81 79 81 82 80 75 71 68 66 66 65 64 63 65
64 67 68 71 67 68 92 98 98 98 99 98 97 96 93 91 84 80 78 79 76 78 79 84 83 87 88 95 95 97 98 98 98 97 96 96 95 95 97 95 91 88 85 80 79 77 74 73 72 71 69 69 68 66
64 63 67 77 88 98 98 98 99 99 99 97 91 91 87 82 82 84 84 85 85 84 85 89 91 93 94 95 95 95 94 94 93 94 94 94 93 93 94 94 93 91 88 83 80 77 74 71 69 68 67 66 66 68
98 99 98 98 98 99 99 98 98 99 94 87 89 89 86 86 86 83 86 88 85 84 86 90 95 93 94 92 89 92 93 91 93 94 95 94 94 95 96 93 88 86 84 82 77 73 70 69 67 65 64 64 64 66
98 98 97 99 99 98 99 98 98 95 90 88 89 86 86 86 87 88 90 96 90 87 93 97 98 98 94 93 91 91 92 92 93 93 93 93 93 94 94 93 90 87 85 83 80 76 73 70 69 66 66 68 69 69
94 93 97 94 91 94 97 97 96 90 87 88 88 90 88 86 89 93 92 97 96 96 96 94 92 93 96 92 92 95 95 96 94 91 89 92 91 88 85 84 85 87 87 86 84 79 75 73 70 69 69 70 71 72
91 94 97 96 93 89 96 94 87 87 89 90 91 93 95 94 97 95 93 94 95 97 98 98 96 93 92 92 92 93 94 94 94 94 94 91 88 86 85 84 84 84 85 85 84 82 80 77 75 74 74 76 78 79
96 96 94 95 95 90 89 88 86 84 87 89 88 92 93 92 92 93 94 95 94 94 93 91 92 95 95 95 95 97 98 97 97 98 96 95 93 91 89 88 87 85 85 84 85 86 84 83 81 80 82 84 84 83
89 89 95 94 90 87 83 81 82 82 84 86 87 87 89 88 88 87 87 89 89 91 91 90 91 91 92 93 94 95 97 98 97 97 96 95 95 94 93 91 90 89 89 89 89 89 88 88 87 88 89 90 91 90
87 87 85 84 85 81 82 79 79 80 81 84 85 86 87 87 85 84 82 82 85 86 86 87 87 88 89 91 94 95 96 97 98 98 98 98 98 98 97 96 96 95 95 95 95 95 95 95 95 95 95 96 96 95
87 86 83 83 84 82 84 85 82 83 84 85 82 82 85 87 86 83 89 93 93 95 95 96 97 97 98 98 98 98 98 98 98 98 98 98 98 98 98 98 97 97 97 97 97 98 97 97 97 97 97 96 96 96
81 79 79 77 78 83 81 82 82 84 88 90 92 96 95 92 90 91 96 97 98 98 98 98 97 94 91 86 80 73 67 63 60 58 58 59 60 62 64 65 67 68 69 70 73 76 80 84 88 91 93 95 96 96
79 83 81 81 80 82 86 88 90 91 94 94 94 95 93 84 84 83 75 64 56 54 52 51 46 45 45 46 47 48 49 51 53 54 55 57 59 61 63 65 67 68 68 70 72 76 77 78 78 79 80 81 82 85
82 84 83 86 86 84 85 85 85 85 82 83 82 77 64 51 43 44 41 40 42 42 41 40 40 40 42 43 44 45 47 49 51 53 55 57 59 62 64 67 68 69 70 71 73 76 78 78 79 79 81 83 85 88
73 77 76 74 74 73 75 75 72 68 66 64 59 45 36 39 40 40 41 40 40 40 40 40 39 39 39 40 41 42 44 46 49 51 54 57 60 63 65 68 70 71 72 74 77 78 79 79 79 80 81 84 86 88
60 67 69 69 68 63 62 60 55 52 44 43 37 36 36 35 38 39 39 37 38 38 38 38 38 35 34 33 35 39 42 44 46 49 51 54 54 55 57 63 70 73 75 77 79 80 81 82 83 83 85 87 87 88
59 60 57 56 52 50 49 46 42 40 39 34 33 36 37 37 37 35 35 35 36 37 36 36 36 36 35 32 30 34 36 39 43 45 47 46 45 44 44 47 50 54 56 59 65 71 73 74 74 75 77 78 78 77
56 51 48 48 48 46 43 42 41 40 36 32 31 34 36 36 38 37 36 36 37 38 38 38 37 37 36 34 31 29 30 35 39 42 45 42 38 38 39 39 42 46 48 51 54 58 62 64 66 67 67 67 66 68
50 45 43 45 45 46 46 44 42 38 33 33 33 34 36 39 39 40 41 41 41 42 42 41 40 38 35 34 33 30 29 30 30 31 32 33 33 33 33 34 35 35 37 39 42 44 46 49 52 53 55 57 59 60
43 42 40 44 47 47 47 42 41 42 39 37 37 37 37 38 38 40 42 44 45 46 46 45 43 38 35 33 31 28 25 23 24 28 31 34 36 37 39 39 40 40 41 41 41 42 45 46 47 47 47 47 47 47
44 41 37 39 43 46 48 47 44 45 44 43 40 39 39 37 38 39 41 44 45 47 48 47 44 40 36 33 29 25 23 24 26 27 29 31 35 38 41 42 43 43 43 41 41 41 41 41 42 43 43 42 41 40

GFSWCAN_prec_cthk_111.txt.gz
RH
53 60 60 73 80 80 79 74 69 67 58 49 41 47 47 54 61 58 51 58 61 64 61 54 50 48 56 61 68 63 58 73 73 83 85 88 94 89 89 83 87 93 89 82 75 64 44 44 55 72 82 86 91 87
51 57 62 72 76 78 77 73 69 68 63 54 48 51 50 60 58 62 56 59 64 76 55 50 48 51 53 57 63 67 69 74 77 83 80 83 86 89 87 95 93 97 98 91 72 59 41 46 60 67 71 87 90 85
50 47 62 74 79 81 79 77 76 71 63 54 61 52 50 57 61 60 63 60 71 71 55 52 48 52 49 52 68 73 77 74 82 85 88 87 87 87 89 85 92 95 96 95 89 73 63 53 57 66 68 76 80 83
47 49 63 78 79 79 82 87 89 82 71 55 59 61 51 59 63 65 62 66 78 68 62 57 48 49 64 63 62 66 71 72 81 81 78 81 84 85 88 93 97 98 97 98 88 83 88 63 59 64 71 89 87 81
53 42 61 84 88 79 82 87 88 90 81 65 59 58 52 57 62 68 65 75 65 65 72 65 62 63 65 68 66 68 70 72 76 75 72 75 75 84 94 92 98 98 98 98 98 88 90 76 63 77 85 94 94 89
58 47 66 78 83 83 82 85 88 95 82 75 63 52 58 66 69 68 80 69 61 72 85 86 72 66 70 74 84 85 76 75 74 75 72 69 71 86 93 89 91 97 97 98 98 98 99 89 83 94 98 98 99 95
58 50 73 86 90 83 79 82 90 95 90 78 58 59 67 68 68 77 71 66 73 83 93 88 77 73 77 81 84 85 82 75 75 77 70 73 73 72 78 81 81 92 98 98 98 98 98 96 98 95 93 97 97 98
64 70 83 88 90 89 86 88 96 93 90 76 60 62 70 73 81 87 73 98 98 96 94 95 86 80 84 88 84 80 83 84 79 78 73 74 76 71 76 78 77 89 93 96 98 97 97 98 98 98 98 93 94 94
82 97 99 96 88 79 80 87 94 94 90 82 60 61 73 82 93 82 84 92 95 96 93 89 89 87 88 91 94 93 85 86 84 80 71 73 73 70 78 77 78 80 83 84 89 92 93 96 96 96 97 97 97 93
99 97 99 90 78 75 74 78 81 91 92 65 69 73 88 91 91 89 97 98 97 92 88 81 78 85 88 94 98 98 96 93 82 76 72 71 68 75 76 74 73 69 69 76 81 81 84 86 89 92 90 94 92 89
98 97 90 82 75 75 82 84 86 89 75 69 88 94 94 95 98 98 98 98 95 94 85 79 76 78 86 90 95 96 97 96 91 79 76 74 70 69 68 65 62 62 68 70 75 77 80 80 81 80 78 77 80 80
90 85 81 78 83 87 87 84 84 76 66 87 91 95 99 99 99 98 97 98 93 86 78 74 77 80 82 88 95 97 98 97 89 85 84 79 77 77 74 71 70 69 68 68 70 76 77 72 68 65 62 61 62 63
83 79 74 78 82 80 84 84 75 77 90 97 99 98 98 95 97 91 92 94 89 78 76 77 78 80 86 95 98 97 98 94 95 96 92 90 95 92 89 87 83 78 75 73 78 78 75 70 68 65 66 66 67 66
71 66 71 73 73 78 85 79 86 94 98 98 96 98 89 84 82 83 80 85 82 80 78 80 84 83 86 94 93 97 97 98 98 93 94 97 97 96 96 97 96 91 86 85 84 81 77 73 71 70 69 68 68 69
53 68 70 66 64 72 78 96 98 98 98 98 93 84 80 81 81 85 85 85 85 84 84 85 89 88 91 92 98 94 96 96 96 95 97 97 97 97 95 93 92 92 91 88 86 83 80 78 74 71 69 68 68 67
65 72 68 69 78 68 90 98 98 99 97 97 86 84 83 84 85 88 90 90 88 88 90 88 95 93 93 95 89 93 94 96 96 95 94 93 94 95 94 94 93 90 88 87 86 84 81 78 74 72 71 68 66 67
70 73 75 78 85 98 97 97 98 97 96 92 88 87 89 88 89 89 88 88 91 88 90 94 94 98 96 95 93 93 93 94 96 97 94 92 91 91 89 88 87 87 88 88 85 80 79 78 77 74 71 69 68 67
73 75 81 95 92 92 99 98 98 97 97 92 90 90 90 88 87 89 91 93 97 95 89 92 93 94 95 94 94 96 98 97 97 94 93 93 89 87 85 84 84 83 83 82 82 81 80 81 79 77 75 74 73 72
97 96 96 95 96 97 98 97 90 91 91 91 92 91 91 91 91 90 96 96 98 98 97 97 97 93 94 95 95 97 97 96 96 96 95 93 92 91 89 88 87 85 84 83 82 82 81 80 79 80 80 79 76 74
99 98 98 99 98 94 92 92 91 89 91 90 89 91 93 94 95 95 93 93 93 95 96 95 95 96 97 97 98 98 97 96 97 96 97 96 96 96 94 92 90 89 88 87 87 86 86 85 84 84 84 83 82 82
97 96 98 97 91 85 83 85 86 88 87 85 88 90 91 91 91 91 92 94 93 93 93 93 95 96 96 96 95 95 94 95 95 97 98 98 98 98 97 95 95 94 93 92 92 91 91 91 90 90 90 90 90 90
89 93 95 91 86 85 86 83 83 82 82 86 85 84 85 86 86 87 86 87 89 90 89 89 90 90 91 92 93 95 96 97 98 98 98 98 98 98 97 97 97 96 96 96 97 97 97 97 96 96 96 95 96 96
88 85 85 85 84 83 87 82 80 80 81 83 82 82 85 84 83 81 88 92 94 96 97 97 98 98 97 98 98 97 97 96 92 89 85 80 77 74 71 71 70 71 72 74 76 77 80 83 86 90 93 96 98 98
84 81 79 81 83 87 83 82 79 79 80 80 81 86 89 89 90 92 96 97 96 94 90 85 76 67 61 56 52 50 49 49 49 50 51 53 54 55 57 58 59 61 63 66 67 67 68 70 72 75 77 78 79 80
80 80 78 78 76 77 78 79 81 84 92 93 93 94 93 85 82 81 75 60 53 51 50 48 44 42 42 42 43 43 43 44 46 47 49 50 52 54 55 57 59 62 64 66 67 68 69 71 74 77 78 78 78 78
79 81 78 78 80 79 83 85 86 88 87 86 84 82 73 66 47 44 41 42 43 42 39 38 38 38 39 39 40 40 42 43 45 47 49 51 53 55 57 60 62 65 67 68 70 71 72 74 76 78 79 79 80 80
78 83 84 85 83 81 81 78 76 74 73 73 72 61 39 38 40 39 41 41 40 39 38 38 38 38 38 39 39 40 40 42 44 45 48 51 53 56 59 62 65 67 69 72 74 76 78 79 81 81 82 82 82 83
68 67 70 72 71 71 70 68 66 63 59 55 45 35 31 32 37 38 39 38 38 38 39 39 39 37 36 36 37 38 40 40 40 40 43 44 44 44 43 44 49 54 57 64 71 77 80 82 83 84 84 85 86 86
57 59 61 65 61 57 59 58 54 49 42 38 33 34 35 36 36 36 36 36 37 38 39 38 38 38 36 34 34 36 37 37 38 37 41 43 43 42 41 40 41 44 46 48 53 58 62 65 67 68 69 70 70 71
56 59 57 57 56 54 51 46 42 41 39 34 31 34 36 36 37 36 36 36 37 38 40 41 42 41 40 37 35 33 33 33 33 32 32 31 31 32 35 36 36 36 37 38 41 45 50 54 58 61 62 63 64 64
59 54 53 54 54 50 48 46 44 41 37 35 34 35 36 39 39 39 40 40 41 43 43 43 43 43 41 40 38 34 31 27 24 22 24 26 29 31 33 37 40 42 43 42 42 43 43 44 45 45 45 47 48 49
54 51 50 51 49 49 49 46 44 44 44 42 41 39 39 39 40 40 41 43 44 44 43 43 42 40 39 38 36 32 28 24 24 24 25 27 28 30 32 36 40 43 44 45 45 45 46 47 48 48 48 48 48 48
47 46 46 45 44 44 42 45 45 47 47 46 45 43 42 41 40 41 41 43 44 44 44 43 41 39 38 36 34 31 26 25 25 26 27 29 31 33 34 36 38 40 41 43 43 44 44 45 46 46 46 45 44 44

GFSWCAN_prec_cthk_117.txt.gz
RH
62 71 64 79 84 89 85 78 76 76 76 70 61 56 49 48 47 52 56 55 52 51 50 45 45 46 46 49 49 58 53 59 56 61 67 75 73 75 74 77 79 74 86 91 70 60 67 66 65 84 94 95 97 98
51 59 58 74 87 82 85 79 83 85 82 78 68 60 51 47 46 58 60 59 56 58 57 55 49 46 54 52 58 59 61 62 62 62 72 73 81 72 76 83 82 93 92 91 84 77 78 72 73 81 89 93 98 98
52 53 57 64 86 85 80 75 93 90 85 81 77 68 62 52 49 59 64 63 59 58 50 44 43 46 44 39 45 54 60 60 62 68 71 76 74 70 81 85 88 80 89 88 75 74 75 71 71 70 78 89 97 97
54 54 51 53 53 74 75 70 85 88 90 89 80 72 64 59 55 64 66 65 62 58 58 59 54 53 46 46 46 47 61 80 74 79 74 70 76 70 82 77 75 90 90 91 77 72 70 74 74 70 70 91 98 98
54 53 49 49 50 55 61 63 76 98 98 98 81 73 66 62 60 67 74 73 64 64 72 67 63 50 47 48 56 65 64 64 68 68 72 71 69 72 73 76 88 97 97 95 94 96 91 86 81 75 68 75 91 94
67 57 55 52 51 53 63 61 87 97 98 98 81 75 71 63 63 75 78 72 73 72 69 66 68 58 56 66 70 70 70 70 71 73 69 63 62 70 75 83 97 93 92 94 98 96 96 94 87 81 72 69 75 91
80 67 60 55 50 63 56 58 97 98 98 89 78 73 76 67 71 79 80 82 70 72 75 66 64 67 69 73 74 76 83 84 81 76 66 63 63 85 82 84 91 88 87 91 96 93 90 95 92 87 74 69 71 87
87 70 59 56 52 63 62 77 95 99 98 90 81 81 74 78 84 86 79 69 69 75 78 74 74 87 74 79 79 81 85 85 79 71 63 59 64 74 69 74 75 73 80 86 94 90 86 87 92 93 86 77 73 92
84 70 56 51 48 61 63 92 98 98 97 89 89 88 84 90 84 86 79 75 80 79 77 80 85 90 83 79 86 86 88 87 80 74 66 72 74 72 73 73 70 69 77 79 85 84 83 86 86 86 88 85 81 90
73 54 57 50 51 84 96 98 91 97 96 93 91 90 91 83 86 86 87 86 89 86 89 85 80 88 76 86 88 93 97 95 95 82 71 76 73 73 70 67 67 70 69 69 73 75 81 87 89 90 92 89 92 90
53 49 49 54 81 95 98 99 98 98 95 94 90 93 90 88 90 92 90 89 86 88 82 73 69 77 80 84 89 94 95 97 92 88 87 78 73 67 68 65 66 69 67 64 65 68 76 84 87 92 92 88 87 86
39 43 63 86 96 99 99 96 94 88 84 87 88 91 96 93 93 93 90 87 89 82 79 74 74 73 80 83 89 92 93 90 87 88 84 77 78 73 70 71 72 74 67 63 61 65 69 75 90 91 88 84 81 76
67 79 85 91 96 94 96 95 94 91 87 84 82 86 92 91 93 90 90 84 83 79 79 78 77 78 79 82 92 95 97 91 92 93 92 84 85 85 88 85 82 79 75 71 70 68 69 74 78 80 77 74 71 68
78 88 98 99 96 94 95 96 93 91 89 82 87 98 96 89 96 83 77 74 83 81 82 80 82 82 81 88 91 98 96 98 96 94 92 88 92 97 97 94 91 86 82 83 80 77 72 73 74 73 71 70 66 64
89 93 88 88 88 89 98 98 93 91 85 92 96 96 94 90 85 83 85 89 88 83 85 84 80 82 88 89 94 93 96 96 95 96 97 97 97 96 95 94 94 92 92 90 86 81 77 77 78 77 76 74 70 68
78 76 80 80 91 95 94 91 90 82 88 97 97 93 85 87 84 86 85 86 89 89 90 84 85 87 90 92 92 94 90 92 95 94 91 90 92 94 94 91 87 86 86 85 84 85 85 85 85 84 82 80 79 77
79 84 93 95 95 92 95 94 92 92 92 93 91 91 86 86 90 89 89 87 86 86 87 82 84 90 94 88 88 88 91 92 90 91 92 93 92 88 88 87 86 84 83 82 81 82 82 83 83 84 85 85 82 80
90 91 93 94 95 94 94 91 92 91 94 93 91 92 92 90 88 90 92 93 91 89 86 88 85 89 93 92 86 89 91 93 93 93 92 92 91 91 90 89 87 86 86 86 84 83 82 83 85 84 83 82 84 83
81 83 89 89 88 86 91 94 95 94 96 94 92 90 90 89 91 89 89 90 90 90 90 90 91 83 85 85 87 91 93 95 96 97 96 95 94 93 93 90 89 88 88 88 89 89 87 84 84 84 83 83 83 82
70 79 83 86 90 94 89 91 90 94 95 92 90 89 91 94 95 91 89 91 96 97 95 92 89 87 89 94 96 96 97 98 98 98 98 97 96 95 94 94 92 90 91 90 91 90 91 90 89 88 88 87 87 87
74 81 86 90 92 90 90 85 88 95 92 91 91 89 92 93 97 97 94 90 91 91 92 93 94 96 97 97 98 98 98 98 98 98 98 97 97 96 95 94 93 93 91 89 88 88 88 88 88 89 89 90 91 91
80 83 89 90 93 93 90 84 87 88 88 89 90 89 91 94 94 95 94 93 92 93 95 95 96 96 97 97 97 97 97 97 96 92 86 77 68 62 58 56 55 55 55 56 57 59 60 61 64 66 68 69 71 73
87 89 92 95 96 94 94 90 88 86 86 89 88 86 87 86 86 85 86 87 91 95 96 97 97 94 89 78 66 56 52 50 49 47 46 46 47 47 48 49 50 52 52 54 55 56 57 59 61 64 65 66 67 68
91 93 94 95 97 94 91 94 88 85 85 85 83 84 83 86 86 89 91 91 89 86 77 63 56 52 48 46 45 41 40 41 41 41 43 44 44 45 46 48 49 50 52 54 55 57 59 61 62 64 66 67 68 69
96 94 96 91 90 86 87 86 84 81 82 80 82 86 89 91 89 86 83 74 62 54 50 47 44 42 42 42 42 41 41 45 46 46 45 46 46 46 47 48 48 50 52 56 58 60 62 64 65 67 69 71 72 72
93 90 84 84 83 81 79 79 79 79 80 87 91 88 86 83 78 70 52 47 46 45 44 43 42 42 43 44 45 45 42 43 46 48 45 44 44 46 48 49 51 52 54 56 59 63 64 66 67 70 72 74 75 77
85 84 80 75 78 78 79 80 80 82 84 84 82 83 77 68 56 39 41 42 42 41 40 40 41 42 44 42 41 41 41 41 43 43 43 41 40 38 39 41 42 44 48 52 56 61 66 68 70 73 76 78 79 81
75 75 78 79 79 81 84 83 82 79 78 77 75 71 59 42 36 38 40 40 38 35 35 36 38 39 39 39 40 40 38 36 35 34 34 32 31 29 28 28 30 32 35 39 42 48 52 57 62 66 71 76 79 82
81 80 78 76 74 73 73 74 74 72 69 68 65 55 44 35 36 39 38 36 34 35 35 35 36 35 35 35 37 39 38 38 38 37 37 40 39 33 24 23 26 28 32 38 41 42 45 48 48 49 51 55 57 59
82 79 76 70 63 64 68 69 69 65 60 57 50 37 33 34 36 37 37 36 37 38 39 39 35 35 35 36 34 33 33 32 32 34 34 33 32 25 23 24 27 29 32 40 43 45 47 51 53 53 52 51 51 50
73 70 62 59 57 61 62 62 61 57 49 46 43 40 40 39 40 40 40 40 40 40 40 38 40 40 38 37 38 34 32 29 27 24 24 24 24 24 24 26 28 30 33 37 41 45 46 48 51 52 53 53 53 54
65 62 55 58 61 65 65 64 60 51 49 50 44 43 44 47 45 42 40 41 41 44 43 42 41 41 41 39 38 35 32 28 26 25 26 26 25 25 25 25 27 30 32 34 37 40 45 47 48 49 49 50 47 45
53 53 58 63 64 66 65 61 55 52 52 48 48 49 50 49 50 46 44 46 48 46 46 47 47 45 44 42 39 36 32 28 28 27 27 27 25 24 23 23 24 25 27 28 30 32 35 38 40 41 42 44 44 46

GFSWCAN_prec_cthk_123.txt.gz
RH
58 67 75 72 86 90 96 98 98 98 95 89 83 86 88 86 81 74 68 59 58 59 58 57 55 48 45 42 44 46 50 55 53 50 61 62 66 68 77 78 86 92 92 85 82 94 89 85 74 79 89 93 98 98
54 61 67 71 77 85 85 87 90 94 98 94 91 88 86 84 81 78 70 68 69 63 59 52 46 41 41 44 42 44 49 56 58 65 72 68 73 69 70 84 79 92 93 94 95 96 92 86 85 80 81 90 89 96
40 52 66 66 65 70 74 81 84 88 82 85 87 89 90 91 88 79 74 79 73 67 54 42 36 37 36 37 42 43 48 52 58 58 58 58 61 59 69 78 81 78 82 86 89 96 85 85 77 75 74 86 85 91
43 37 43 59 65 70 70 67 80 90 92 86 81 80 77 76 74 71 67 72 70 61 53 45 43 40 40 39 39 35 43 55 55 58 60 66 69 62 66 65 69 75 81 83 87 82 76 80 77 74 78 79 78 78
40 43 39 58 71 76 72 74 74 77 84 86 85 82 76 75 72 63 58 65 69 62 62 56 48 47 44 43 42 43 40 45 49 58 71 73 62 65 64 60 58 73 78 83 85 81 82 76 70 71 77 77 79 72
50 50 48 68 83 80 85 85 86 87 89 86 86 90 89 82 78 67 59 63 70 70 63 57 51 45 49 53 50 44 45 45 54 65 62 57 62 62 63 67 72 82 81 84 82 78 81 79 74 72 82 81 80 74
59 51 46 55 72 70 78 90 95 97 99 95 92 88 86 83 76 72 71 68 68 71 67 61 54 50 54 55 53 54 59 67 69 69 69 66 63 67 70 72 79 78 81 88 85 83 81 78 76 74 78 82 79 74
73 62 54 47 45 43 53 80 93 95 92 98 99 98 97 92 87 87 80 77 74 75 72 69 62 68 68 66 66 66 70 71 68 70 67 66 72 68 60 63 73 78 86 86 78 80 78 74 69 72 76 81 85 83
85 76 65 55 48 41 40 56 72 89 87 97 99 99 98 96 86 86 80 77 79 78 73 68 66 78 80 81 76 75 69 72 71 76 74 72 70 72 67 74 77 78 80 80 76 74 73 71 67 72 78 85 86 87
85 80 76 62 54 48 44 56 65 90 89 99 97 93 92 86 88 91 92 80 74 72 71 67 65 77 94 91 79 75 76 82 86 85 89 88 79 75 79 80 79 78 74 73 70 69 70 73 68 68 79 84 87 88
88 80 79 75 66 60 70 63 77 97 99 98 94 89 86 91 94 92 90 79 71 70 63 55 54 75 90 96 84 80 89 89 92 90 94 98 95 95 93 86 79 73 66 65 65 70 71 69 70 72 77 87 91 87
89 84 80 74 69 67 71 65 85 98 96 87 73 84 88 91 92 90 83 71 69 65 57 58 53 67 87 97 90 90 94 91 88 90 97 96 95 93 91 88 81 73 67 70 71 74 78 77 75 72 77 88 95 89
84 82 82 68 63 60 62 62 78 98 97 85 84 91 87 84 86 71 70 68 66 63 66 65 68 72 77 87 89 90 91 88 84 93 93 92 93 92 91 88 86 86 84 84 82 81 82 78 77 80 80 85 89 89
82 78 65 60 61 65 69 85 90 94 90 86 87 87 86 75 63 57 58 64 61 64 84 86 83 79 74 77 88 87 84 89 93 98 97 98 97 96 97 97 97 96 91 92 88 85 83 82 79 81 82 82 87 89
65 60 60 58 80 90 99 98 98 96 91 84 78 74 66 65 66 68 68 74 84 86 93 89 80 81 80 79 80 81 88 96 98 97 94 94 95 97 97 97 95 93 92 89 87 85 81 80 78 76 77 79 79 79
54 64 76 92 93 98 98 99 99 90 81 75 67 66 73 78 85 89 89 93 97 98 95 86 90 79 84 84 86 84 92 97 97 95 92 91 90 90 90 88 88 88 86 84 84 83 81 80 80 80 79 76 75 75
83 86 95 97 98 98 98 97 86 77 72 72 77 80 92 95 93 93 93 94 95 95 94 95 95 90 87 87 93 96 95 93 90 90 91 90 88 86 86 85 83 82 84 84 83 82 83 83 82 81 81 81 81 80
90 81 85 95 96 94 89 82 71 69 81 84 91 92 95 97 93 87 89 89 94 91 92 98 92 89 93 95 98 94 88 87 85 86 88 88 88 90 90 88 88 88 86 86 87 86 84 85 86 87 86 86 85 86
83 87 91 89 85 76 78 79 81 83 89 94 96 94 93 93 92 92 93 90 91 93 92 91 92 87 82 84 85 85 84 84 87 88 87 88 90 92 92 92 90 87 87 86 86 85 85 84 84 84 84 85 86 85
87 92 97 94 89 82 79 82 84 91 97 97 97 95 93 92 92 93 92 94 94 93 90 88 86 83 82 81 79 79 82 82 83 89 93 96 97 95 94 91 84 78 71 64 58 56 56 56 56 58 60 62 64 67
87 91 92 89 84 80 85 88 88 95 97 98 93 93 93 94 97 95 93 89 90 87 87 86 88 90 93 94 94 94 94 94 93 94 89 74 63 54 48 44 42 41 41 42 43 44 45 45 47 48 49 50 52 53
75 81 81 81 85 89 94 90 90 92 97 94 96 96 95 96 96 95 91 88 85 84 85 86 87 89 92 95 95 94 88 78 64 55 52 48 46 46 44 45 45 44 44 45 45 45 46 46 48 49 50 51 53 53
73 76 85 92 92 89 94 90 87 88 91 92 91 92 93 93 93 88 89 88 87 89 90 89 88 86 85 79 72 64 56 50 47 45 46 45 44 43 42 42 45 46 44 44 43 44 44 46 48 50 52 53 55 56
76 82 87 88 90 94 94 92 92 91 90 91 90 89 89 88 81 83 88 86 81 81 81 79 73 65 59 53 49 44 41 40 39 39 41 38 37 38 37 37 38 40 41 40 43 44 45 46 49 53 53 56 59 61
78 81 89 91 93 95 95 94 94 90 89 87 86 85 86 83 86 85 84 82 77 71 65 59 53 48 46 44 41 40 39 38 37 39 41 40 38 36 36 36 37 37 38 42 43 43 46 49 52 54 55 59 62 65
88 88 87 92 93 93 91 91 89 87 85 83 86 87 84 85 84 80 76 66 62 56 51 48 45 44 42 38 36 39 40 40 38 37 38 38 39 40 40 37 34 36 37 33 34 38 41 46 48 52 55 62 65 66
86 90 91 89 91 90 90 88 85 84 87 88 89 85 82 83 78 74 66 56 49 46 44 44 43 39 37 36 36 37 38 40 40 39 36 36 36 36 35 35 34 34 31 27 26 30 31 35 39 45 49 52 54 57
86 86 86 84 84 84 84 83 86 89 90 85 84 85 81 78 76 67 50 43 43 44 43 41 39 39 37 35 36 36 38 40 42 40 35 34 34 31 28 25 22 22 23 24 25 28 32 35 39 44 48 51 52 53
77 80 82 83 81 80 83 86 88 87 79 75 79 80 77 74 69 67 46 39 42 41 41 39 38 37 37 37 36 37 40 42 41 39 41 41 39 36 32 26 23 22 25 27 30 31 30 32 38 41 45 47 50 51
80 80 81 79 81 82 85 84 85 82 76 71 69 71 72 69 66 61 46 42 44 43 41 39 38 36 36 35 36 39 44 47 47 43 42 40 37 36 34 28 24 23 23 25 28 30 32 34 38 40 42 43 46 47
85 87 87 85 83 86 86 83 79 77 74 63 60 67 71 66 62 57 44 43 46 45 41 39 39 40 40 38 38 40 45 47 47 44 41 37 34 33 31 28 25 23 23 23 24 27 31 32 35 36 37 38 38 38
85 88 86 85 85 84 80 78 74 70 65 56 59 68 70 64 56 49 41 44 49 46 44 44 45 45 43 41 40 41 46 46 45 41 39 36 34 33 31 29 27 24 23 24 24 27 31 34 37 41 43 42 43 43
78 82 84 83 81 78 74 71 69 66 61 61 64 67 65 58 53 45 42 47 49 45 45 46 45 45 45 44 43 44 48 49 45 44 42 39 36 34 32 31 29 28 28 29 29 31 32 33 35 37 39 41 43 44

GFSWCAN_prec_cthk_129.txt.gz
RH
98 98 99 98 99 98 98 98 98 98 95 93 90 79 67 72 72 75 71 73 68 65 72 71 71 72 64 57 57 51 48 46 45 45 48 51 51 52 53 54 57 61 69 76 79 80 69 68 58 69 73 78 79 88
93 98 98 99 99 98 99 98 97 92 93 93 91 81 72 73 76 70 71 74 72 68 76 78 75 70 60 53 46 49 46 43 43 46 48 51 56 55 56 61 58 64 62 67 68 71 69 68 67 66 71 75 78 85
87 95 97 96 98 99 99 98 98 97 94 94 94 93 90 75 72 78 77 72 67 67 65 69 66 60 56 53 47 46 45 44 43 40 46 52 53 54 56 55 56 50 59 67 65 62 71 73 70 66 63 74 77 80
65 79 93 94 94 98 99 99 97 97 96 94 92 93 93 92 87 81 76 69 61 55 57 58 53 48 48 46 45 41 40 41 42 42 45 48 47 45 48 47 50 50 60 62 64 65 73 77 76 72 66 69 75 75
40 54 77 84 86 92 96 98 99 99 98 95 95 96 92 90 85 80 73 65 67 61 63 60 54 50 46 43 41 39 35 37 43 48 51 49 46 48 47 50 50 45 48 57 57 65 71 78 77 72 67 67 69 75
34 34 52 78 85 85 92 98 99 98 99 98 97 96 94 92 84 79 77 77 72 65 59 60 61 56 51 47 43 40 38 37 44 45 44 46 44 44 53 55 43 47 53 73 78 88 89 86 74 72 69 70 66 70
37 34 35 55 70 82 83 92 98 98 99 97 98 97 95 90 81 74 71 67 67 64 59 59 57 55 53 51 52 49 47 48 45 45 47 46 47 55 59 54 45 50 58 83 88 87 91 86 84 80 74 67 67 67
46 40 38 49 61 63 72 80 88 92 92 98 98 98 95 85 80 73 68 66 68 62 60 60 62 56 53 57 58 54 54 55 56 57 57 58 58 58 57 47 48 55 66 77 86 91 92 90 89 90 83 73 73 71
56 47 42 53 58 59 57 68 81 89 94 98 98 95 91 83 76 74 68 67 68 66 60 58 58 64 63 66 64 64 61 63 59 62 62 64 68 67 60 59 61 68 76 82 85 85 84 86 90 85 85 78 72 75
65 53 50 52 58 56 58 63 68 86 97 94 98 97 93 86 81 81 78 73 70 66 60 60 59 67 68 72 71 66 67 66 65 64 70 72 73 77 76 68 69 69 75 79 82 81 82 82 86 84 81 80 74 70
80 62 50 55 57 55 60 63 67 86 85 93 96 94 90 91 83 77 75 70 66 59 52 50 52 55 69 79 80 73 73 72 76 74 77 78 80 81 83 86 88 87 86 86 84 79 76 74 76 78 81 82 78 75
85 69 55 48 47 56 73 80 82 81 91 76 80 85 89 89 83 77 72 65 57 50 46 45 44 51 61 77 83 84 80 80 78 82 84 77 77 92 88 89 90 90 87 84 81 78 80 81 82 80 82 83 84 79
86 73 56 50 44 61 77 92 98 99 90 93 95 96 92 92 82 73 65 55 53 44 44 46 51 49 59 68 83 91 88 86 82 85 81 78 81 85 87 90 93 94 92 92 88 87 86 84 82 80 78 81 85 88
84 75 63 51 43 65 98 99 98 99 97 95 95 93 83 80 65 56 50 46 40 41 46 49 53 57 62 75 97 97 88 88 86 86 88 91 87 92 91 91 94 96 96 96 94 91 87 85 83 82 81 79 78 80
81 71 62 52 49 86 98 98 99 96 89 88 85 85 76 56 52 47 46 45 42 45 52 68 73 75 77 91 90 85 88 84 83 88 85 84 85 88 90 92 93 91 87 84 82 80 80 81 81 81 80 82 81 81
74 73 65 61 68 90 99 99 96 92 89 86 75 71 64 58 54 52 50 49 50 54 69 82 92 90 89 87 86 84 82 80 79 86 84 84 86 87 87 85 82 80 79 79 79 79 79 80 79 79 79 79 79 78
74 66 67 70 89 98 98 98 97 93 89 84 75 63 56 54 56 53 53 56 63 72 84 91 97 88 91 91 88 83 78 77 78 77 77 79 81 82 80 78 78 79 80 82 85 85 86 85 83 83 82 82 83 83
70 59 59 74 92 98 98 96 87 86 83 76 69 61 57 57 55 59 73 81 87 93 90 90 98 88 88 84 82 78 81 79 78 77 78 79 78 77 78 82 88 85 77 69 64 59 57 55 53 53 54 55 57 59
53 69 73 87 94 96 94 92 82 72 70 66 62 58 58 65 76 85 86 90 92 93 98 95 88 87 84 81 84 81 78 76 77 77 77 76 76 80 85 63 50 47 44 41 40 40 40 39 39 39 40 41 42 43
67 86 88 97 96 89 82 81 77 69 71 65 60 63 67 75 82 82 83 82 82 86 90 91 83 80 80 79 74 72 72 71 72 74 77 81 85 61 47 42 37 36 34 33 35 38 39 40 40 40 40 40 40 41
90 96 94 90 84 76 73 69 69 67 67 73 80 81 82 80 81 84 87 87 83 78 77 76 79 82 79 76 74 73 74 75 77 82 83 68 48 44 41 38 36 35 34 35 34 35 37 38 38 39 40 40 41 42
93 88 83 79 77 73 68 72 85 88 89 89 88 86 87 89 90 92 93 91 86 80 77 75 75 76 75 76 78 82 83 82 79 67 49 43 40 39 37 34 35 36 36 37 37 36 36 36 38 39 38 39 41 43
71 68 65 66 73 89 89 93 90 88 91 93 94 91 91 91 90 91 89 84 78 75 74 73 74 76 77 78 79 80 77 67 53 45 42 40 39 38 38 38 38 39 39 40 40 39 38 36 37 39 39 40 42 45
74 74 79 85 87 92 95 95 93 89 89 90 91 92 93 91 90 88 84 76 71 70 70 70 72 75 76 74 71 65 56 49 47 44 41 41 41 40 41 40 41 42 43 42 41 41 40 39 38 38 39 40 42 46
80 84 87 90 90 94 97 98 97 94 94 94 94 92 91 87 85 80 76 71 69 68 68 69 68 67 65 60 55 51 47 45 42 40 42 43 43 43 43 42 42 41 41 41 42 41 40 40 40 40 37 37 39 41
84 86 88 92 95 95 95 95 95 94 94 92 91 90 87 87 85 81 75 72 69 65 63 62 61 59 56 50 46 45 41 38 37 39 41 42 42 41 41 42 42 41 40 38 37 36 35 34 34 36 38 40 40 41
85 89 89 93 94 95 95 95 93 93 93 90 90 91 91 87 82 76 72 66 63 61 59 57 55 51 47 45 42 39 38 38 38 41 45 46 46 47 46 45 45 44 42 39 37 34 30 34 34 33 33 35 40 42
87 90 93 92 93 92 92 93 92 90 88 87 89 87 84 83 78 72 68 62 44 41 47 52 51 47 45 43 39 37 37 39 40 42 44 46 47 46 45 45 44 43 40 34 30 30 30 31 32 32 33 35 36 38
82 87 88 93 91 90 87 87 86 85 86 88 88 86 81 77 72 69 69 67 60 36 41 47 48 45 43 42 40 38 38 38 40 42 44 45 44 43 41 39 37 35 34 33 32 33 33 32 33 35 35 35 35 35
83 84 82 85 85 84 83 84 85 84 85 86 85 83 82 79 75 67 65 67 66 54 42 45 45 44 41 38 37 37 38 41 44 46 49 50 49 48 45 40 39 37 36 35 34 35 36 36 36 36 37 36 36 36
92 91 89 87 84 85 85 83 81 80 81 80 80 80 79 77 73 67 60 62 69 68 54 43 44 43 41 39 38 40 41 43 44 46 48 51 52 50 47 44 41 40 39 38 37 37 38 39 40 40 40 38 37 36
91 93 92 90 89 87 85 80 75 73 75 75 76 76 75 73 70 65 62 58 65 72 68 53 46 44 42 44 46 46 44 44 43 45 48 49 46 47 48 48 46 44 43 41 41 40 40 41 42 41 40 38 37 37
89 89 88 86 84 81 78 75 73 70 71 72 70 69 66 64 62 59 55 53 62 74 74 63 54 52 49 50 49 47 44 43 43 44 45 46 44 46 50 51 50 48 47 47 45 43 42 41 42 42 42 41 40 38

GFSWCAN_prec_cthk_132.txt.gz
RH
98 99 99 99 98 97 98 98 95 91 91 90 84 86 82 82 81 76 75 76 74 81 83 78 73 73 67 66 71 77 78 69 56 51 50 50 50 46 47 47 51 52 58 65 67 72 66 59 58 62 69 71 78 81
98 98 99 98 98 98 97 98 97 93 89 82 72 77 85 85 80 73 62 67 69 74 81 78 77 75 74 73 67 69 64 55 48 50 51 50 51 50 47 52 50 56 51 55 56 56 55 56 61 64 66 68 71 80
97 98 98 99 98 99 98 98 97 97 97 92 85 71 73 74 73 74 72 72 72 75 76 77 79 79 77 68 60 58 57 53 49 43 43 47 48 48 52 51 50 47 50 50 48 44 52 56 64 66 67 67 67 68
92 98 98 98 99 99 98 97 95 96 97 95 89 79 75 74 75 75 73 74 73 67 77 83 83 81 73 66 59 51 48 48 46 42 40 42 40 39 46 44 46 47 47 49 51 47 52 55 66 68 69 65 68 67
78 93 96 98 98 98 97 97 96 96 98 97 97 94 86 83 82 84 80 77 74 69 72 73 71 66 63 57 50 47 46 45 44 43 43 42 41 41 45 46 42 39 40 46 48 45 52 59 72 78 69 70 70 68
60 82 96 98 98 99 98 98 97 95 96 97 98 96 95 93 89 82 75 70 62 57 60 67 68 65 58 53 48 45 41 41 40 39 42 42 39 41 43 44 35 39 43 44 47 56 62 68 85 86 79 77 75 70
48 60 81 88 92 95 95 96 99 98 96 95 96 96 95 91 82 75 72 74 70 64 58 68 74 70 63 58 56 51 46 42 39 39 39 42 44 42 48 48 40 45 44 47 54 77 84 88 89 91 86 82 78 72
38 41 62 74 84 89 95 96 98 99 98 98 97 97 92 86 80 76 74 71 67 62 59 66 72 71 65 60 59 55 50 46 45 47 51 51 48 50 53 49 48 46 51 56 63 75 82 88 91 93 90 88 84 75
37 37 49 59 71 85 97 98 98 98 99 98 98 95 89 82 77 76 76 72 65 59 60 61 66 69 64 64 62 56 53 56 56 56 55 56 61 65 61 61 60 57 58 62 69 78 82 85 84 85 87 90 87 84
43 37 47 57 61 69 89 97 99 98 98 99 94 87 86 84 78 71 70 67 65 61 57 59 62 68 65 66 63 61 61 62 60 57 60 65 66 66 68 71 72 69 62 62 69 74 77 79 77 80 81 87 83 83
50 44 44 57 59 61 70 89 98 96 96 98 91 87 89 81 73 69 68 65 63 61 57 59 63 67 71 70 67 62 63 64 68 65 71 70 70 68 72 79 81 83 84 84 83 80 78 75 75 80 82 82 84 86
52 49 47 57 58 58 63 68 84 90 88 86 88 94 90 80 74 70 69 64 57 52 49 49 50 54 65 70 70 72 71 74 73 74 75 68 67 67 74 84 85 85 86 86 84 82 80 79 81 80 80 81 83 86
62 50 49 52 55 60 67 70 69 87 91 94 95 95 90 83 76 66 63 55 51 44 43 42 44 47 58 63 72 78 79 78 78 79 69 64 68 72 79 81 83 85 89 90 89 90 88 87 83 80 79 78 77 78
75 59 50 48 51 68 77 78 83 87 96 96 95 92 85 87 69 58 52 48 40 39 39 42 43 45 51 56 73 86 84 84 83 77 70 79 78 77 83 83 82 84 85 86 88 86 83 81 79 78 77 79 80 81
79 60 52 46 58 74 83 91 91 94 91 89 82 85 78 62 56 49 46 44 44 44 43 49 53 54 60 64 78 89 87 81 75 71 77 71 71 75 78 80 81 81 79 76 76 76 77 76 76 76 77 77 76 78
74 66 52 56 74 91 98 98 98 97 97 91 87 73 70 67 59 52 45 45 47 48 54 60 69 72 70 75 76 82 75 75 68 70 75 72 72 75 77 79 77 74 74 74 76 78 81 81 82 82 82 81 81 80
68 57 50 66 86 98 99 99 97 96 93 86 84 84 73 60 53 49 46 44 47 54 57 66 79 81 81 77 73 73 72 69 71 71 69 69 71 73 75 74 70 73 78 74 66 58 54 52 52 53 54 54 55 57
66 57 78 88 92 98 99 96 85 85 85 81 83 80 68 55 50 48 46 49 54 57 59 75 98 90 86 80 80 72 72 71 71 70 71 71 72 72 71 70 76 60 50 45 42 39 39 39 39 41 42 43 43 44
59 60 86 96 98 97 90 87 85 87 85 80 73 64 59 56 54 52 55 58 66 74 80 90 92 92 85 78 74 73 74 74 73 73 72 71 69 68 72 71 49 43 39 37 34 33 33 34 35 36 39 40 41 42
60 71 81 97 95 85 84 88 85 80 81 75 69 64 58 57 59 64 72 82 88 90 93 88 85 81 79 77 73 70 69 67 66 66 66 66 68 76 64 42 38 36 34 34 35 36 36 36 34 34 35 36 37 38
81 87 96 97 88 73 71 71 74 74 74 69 62 56 55 56 61 77 84 86 84 81 82 79 81 84 80 74 72 71 68 66 65 67 72 78 72 51 39 37 34 33 34 35 36 37 38 37 37 37 37 37 37 38
91 94 89 84 77 74 73 75 74 70 66 60 58 61 68 74 78 82 84 84 79 73 70 69 69 72 75 73 72 72 71 71 74 74 71 60 42 38 36 35 35 34 35 37 38 39 38 38 38 39 39 39 39 40
86 80 80 82 84 80 81 74 67 61 66 73 80 82 85 84 83 87 88 84 81 79 75 71 70 72 73 73 71 71 74 73 71 65 50 40 38 36 35 35 35 37 38 38 38 38 38 37 37 38 40 39 40 40
86 82 77 75 76 80 80 86 88 88 91 93 92 93 91 89 86 84 85 81 78 74 73 71 71 70 71 71 71 72 72 67 58 47 43 39 37 37 38 39 40 41 41 41 40 39 38 38 37 37 37 37 36 37
73 81 87 90 93 96 97 97 96 92 92 92 92 90 89 88 89 88 83 75 71 68 68 68 68 69 71 73 72 70 63 56 49 44 40 40 41 41 42 41 41 41 41 41 41 40 38 37 37 36 36 36 35 35
89 91 91 94 97 97 97 97 97 96 95 94 94 94 91 91 89 83 78 76 72 68 65 66 67 67 67 67 64 59 54 48 44 40 40 42 44 43 42 41 40 40 40 39 38 37 37 36 36 37 37 36 37 39
88 92 93 97 96 97 97 95 94 94 93 93 93 93 93 92 88 81 78 72 67 65 63 63 63 63 61 60 57 53 47 42 37 36 38 41 43 43 43 44 45 44 43 42 40 38 36 32 31 34 36 36 37 37
86 91 94 94 95 93 93 93 93 91 91 90 92 91 87 87 85 77 73 70 66 53 47 57 59 59 59 56 52 48 42 38 35 35 37 41 45 47 48 48 47 46 44 42 39 34 33 33 32 32 34 37 38 38
85 90 91 94 93 92 91 88 87 88 89 90 91 90 87 82 79 76 72 68 66 64 51 41 49 55 57 54 48 42 39 36 33 33 36 40 44 47 51 52 52 48 43 39 37 35 35 35 35 35 37 39 39 39
78 80 83 86 89 90 90 88 86 86 85 87 89 89 88 85 83 81 77 71 65 65 61 54 47 50 52 49 44 39 38 38 38 37 38 41 44 44 49 50 48 46 44 43 41 39 38 39 39 40 40 40 40 38
86 87 87 89 88 87 87 86 85 84 82 81 81 82 83 82 80 79 77 73 67 62 65 68 64 52 50 47 41 37 36 38 39 39 39 41 43 44 48 52 47 48 48 47 46 44 42 43 44 44 44 43 41 40
95 95 94 92 91 89 87 84 82 79 77 75 73 73 74 75 75 75 77 76 74 72 64 68 73 70 60 51 45 44 41 41 40 40 40 41 42 43 44 48 49 49 51 51 49 48 47 48 48 47 45 43 42 42
95 94 92 89 87 84 81 78 76 74 73 72 71 70 69 70 71 73 72 67 65 68 69 68 70 74 73 65 53 48 46 42 39 42 43 44 45 41 40 46 51 52 54 54 54 53 51 51 51 51 50 48 46 44

GFSWCAN_prec_cthk_135.txt.gz
RH
98 99 98 98 98 98 98 99 98 93 90 97 97 98 96 94 89 83 83 82 76 82 84 77 77 75 75 71 72 75 73 73 76 73 64 61 60 55 54 50 47 48 54 56 61 61 54 52 49 51 54 54 56 60
97 99 99 98 98 98 98 98 98 89 91 93 93 93 91 87 82 81 80 80 74 74 83 81 77 74 72 68 68 75 74 77 70 65 64 59 59 56 50 50 46 50 44 47 45 45 48 52 52 53 57 60 60 58
98 98 99 98 98 98 98 97 95 95 88 90 92 94 91 83 78 75 78 80 80 78 80 80 79 77 71 71 70 72 75 73 64 54 53 52 49 48 46 41 45 46 47 46 44 45 47 47 46 51 55 62 62 58
98 98 99 99 98 98 97 98 96 91 83 79 86 87 84 81 77 69 69 71 72 77 86 89 85 78 78 75 67 63 64 63 56 51 48 47 45 41 42 38 42 45 47 48 46 41 42 46 52 58 62 64 64 65
98 98 98 99 98 98 98 98 98 98 96 87 74 75 74 73 72 70 71 71 73 71 85 89 85 83 79 74 70 62 56 55 52 49 46 42 38 35 37 37 37 34 34 38 39 34 39 47 54 62 70 68 70 75
97 98 98 99 99 98 98 97 97 97 97 92 86 82 80 80 78 75 74 76 71 71 77 90 92 87 79 68 61 56 51 47 45 46 48 42 36 34 38 37 30 30 32 34 39 44 47 54 62 67 77 83 88 88
86 96 98 98 99 98 98 97 97 98 99 98 95 92 87 85 82 75 74 77 71 66 74 84 86 77 67 60 56 52 47 46 43 43 43 39 38 35 39 38 33 35 42 42 44 46 58 79 81 85 90 97 95 90
67 93 97 98 98 98 96 98 97 97 98 97 95 93 90 79 73 72 68 67 60 58 59 75 83 80 70 64 60 55 50 47 44 44 43 39 40 41 43 41 43 42 44 45 51 55 64 74 87 94 94 93 91 91
54 83 94 96 98 96 96 98 98 95 96 95 92 89 83 77 79 80 74 70 64 55 59 70 77 79 72 66 62 56 52 51 52 50 49 49 51 51 47 51 55 57 54 53 56 63 70 78 82 84 85 85 85 86
46 62 74 88 96 96 93 98 98 96 92 92 87 79 80 79 76 74 70 66 63 61 60 69 67 71 66 64 63 59 57 58 58 54 54 53 51 51 53 59 64 69 68 68 66 66 70 75 79 79 78 80 82 88
39 54 61 69 88 96 95 98 98 98 94 85 82 82 76 71 66 66 66 63 60 60 60 66 64 63 67 63 63 63 62 59 59 57 59 58 57 57 59 64 72 75 74 76 80 83 83 81 80 79 80 82 84 88
37 47 57 59 73 95 97 97 97 94 93 83 78 77 68 64 62 62 67 64 59 57 60 64 66 67 70 67 65 63 59 60 62 63 62 60 59 61 62 66 73 75 77 82 85 84 87 84 80 82 82 81 81 82
42 45 53 56 59 80 94 97 99 96 94 87 80 75 67 66 62 57 63 60 56 49 47 47 53 58 64 60 62 62 62 64 67 67 61 59 66 69 69 74 76 76 78 81 82 84 86 85 84 84 83 82 83 83
47 46 56 58 60 66 73 94 99 95 95 90 89 86 72 66 56 51 47 41 38 38 37 38 42 44 48 53 61 66 69 72 73 73 65 71 72 76 77 76 76 75 77 79 78 73 73 73 74 75 77 77 78 77
51 48 52 61 63 68 73 83 87 97 88 82 83 86 74 60 55 50 47 43 39 37 34 39 42 44 46 51 60 72 74 71 69 67 68 74 71 72 73 72 73 73 71 67 67 69 72 74 76 76 76 77 77 78
62 59 52 58 64 86 86 74 87 90 91 86 82 76 69 67 63 56 49 48 40 38 40 44 50 50 53 58 59 69 67 67 65 65 71 70 68 69 70 71 70 66 65 66 68 60 53 46 42 41 41 41 42 43
67 59 55 56 74 85 93 90 81 81 83 78 75 70 67 58 59 52 46 47 42 45 48 52 56 58 63 61 58 55 60 63 66 68 66 65 66 67 68 69 66 63 66 55 45 41 37 35 35 35 35 36 37 39
63 59 57 76 86 90 98 89 91 93 86 77 75 65 63 64 61 54 48 47 48 51 52 55 60 70 73 73 70 61 60 64 69 67 64 65 67 69 70 67 64 66 49 41 37 36 35 35 34 35 35 36 36 36
55 59 76 92 97 98 98 92 88 81 79 74 74 71 73 69 59 53 49 48 50 51 55 58 64 82 83 75 73 74 73 69 69 67 69 71 71 68 64 64 68 47 39 36 34 34 35 34 35 35 36 36 36 37
68 80 95 97 98 94 89 89 88 80 88 88 85 81 77 68 61 55 51 51 54 57 62 62 68 77 79 79 75 71 68 71 72 73 71 67 65 64 67 69 46 37 35 33 34 35 36 36 36 36 37 36 37 38
80 96 94 92 92 79 77 83 81 83 81 76 72 69 66 64 61 61 63 68 68 70 72 70 76 77 76 75 75 74 69 68 68 64 63 65 70 75 63 42 35 33 32 34 36 38 38 38 37 37 37 37 38 38
95 96 90 80 75 73 77 78 74 72 74 70 67 65 65 60 58 57 63 76 78 73 70 72 74 72 75 76 73 72 71 70 69 66 69 73 69 54 39 34 33 33 35 38 39 39 38 38 38 38 38 39 40 40
93 88 77 69 65 62 71 74 73 71 72 68 63 59 59 61 62 72 77 75 73 74 73 71 68 67 67 67 70 73 73 71 69 68 69 64 50 38 34 34 35 36 38 40 40 38 38 37 37 38 38 38 39 40
75 72 70 65 64 67 63 65 63 63 64 65 65 70 77 84 81 80 80 81 79 79 78 76 73 71 70 71 70 68 66 68 67 65 61 49 38 35 36 37 39 41 41 40 40 40 39 38 37 37 36 35 35 36
74 76 77 76 75 70 67 69 71 74 79 87 90 91 91 89 89 87 84 82 80 76 73 72 71 71 69 67 67 68 67 67 66 60 51 42 36 37 39 42 43 43 42 42 42 41 39 39 39 38 38 37 37 37
84 86 92 94 98 97 96 97 97 96 95 94 93 92 90 92 93 90 84 82 78 74 69 67 66 67 68 68 68 69 69 65 61 56 47 39 38 39 40 41 41 43 43 43 43 41 40 38 37 37 38 39 39 39
92 96 97 98 98 98 97 97 97 97 95 95 94 94 93 93 91 86 83 81 78 72 70 68 67 66 66 67 68 68 66 63 59 52 43 40 41 42 42 42 43 46 47 47 47 45 43 40 37 36 37 38 39 40
91 96 97 98 98 97 97 97 95 94 93 92 93 91 89 91 90 87 82 79 75 70 64 59 65 68 68 67 67 67 65 61 56 45 40 40 38 36 40 44 48 52 54 53 50 46 43 41 39 38 38 38 40 42
88 94 96 98 97 95 94 91 89 89 89 90 91 92 91 89 89 87 84 80 75 69 65 61 52 47 57 64 67 67 64 57 46 37 36 36 34 33 36 42 47 53 56 53 49 47 46 45 44 42 42 42 43 42
84 86 88 91 93 93 93 94 93 91 87 88 89 90 92 91 90 88 85 82 79 74 67 65 66 56 50 57 64 65 63 53 42 36 33 32 32 35 34 37 40 46 52 53 52 51 49 49 48 48 47 47 46 45
78 78 77 78 77 79 82 84 85 85 85 84 84 86 86 84 80 79 79 79 78 78 76 67 66 72 68 59 59 60 57 48 41 38 38 36 35 34 32 33 34 39 45 49 54 54 54 54 53 52 51 49 49 49
93 93 93 90 90 89 88 85 83 81 81 79 78 77 76 76 74 74 74 72 73 76 78 76 71 67 71 70 67 61 53 47 43 41 39 38 38 36 34 34 34 39 47 48 54 57 58 58 57 54 53 52 52 52
96 95 94 93 90 86 83 80 77 75 75 75 74 73 72 72 72 73 72 71 69 70 72 73 75 76 76 74 73 72 64 55 47 45 43 41 37 33 33 33 33 35 40 45 55 59 60 61 61 60 58 56 55 54

GFSWCAN_prec_cthk_138.txt.gz
RH
98 99 99 98 98 97 96 96 98 98 98 98 98 97 96 94 93 91 95 97 94 95 96 91 84 82 79 72 73 76 74 74 72 71 66 67 63 64 68 65 59 56 57 61 50 51 51 43 44 46 48 45 48 49
96 99 99 99 99 98 96 94 98 98 98 98 97 92 91 90 87 85 91 93 89 89 92 85 80 77 74 72 71 77 75 72 70 66 63 61 70 67 60 70 63 63 53 48 45 46 44 44 44 43 43 46 50 50
97 99 99 98 99 98 96 94 98 98 98 97 96 90 88 89 89 85 88 91 86 86 86 84 83 78 75 75 73 73 73 69 69 66 67 69 63 57 58 57 55 52 44 41 41 45 47 46 45 44 44 48 50 52
98 99 99 98 98 98 96 93 93 97 98 97 91 87 82 89 86 83 82 84 83 86 93 94 87 82 79 72 69 67 67 71 71 63 59 59 55 54 53 49 50 46 43 47 43 45 44 42 42 45 46 51 56 55
98 98 98 98 98 97 97 96 94 92 96 92 89 86 78 80 81 84 82 82 80 77 91 94 84 82 76 70 66 66 68 66 61 59 54 50 46 45 46 41 43 38 45 44 44 39 32 41 41 45 51 56 59 61
98 98 98 98 97 98 97 94 88 83 85 90 84 84 80 78 76 77 80 82 77 77 82 93 93 88 82 75 66 63 63 63 57 55 49 45 41 39 35 32 32 31 31 29 34 35 38 42 47 54 58 62 66 72
98 98 99 98 98 98 98 98 97 94 82 78 76 79 76 75 73 73 77 79 77 77 80 89 92 86 79 72 72 63 56 55 54 50 47 45 40 34 32 31 30 33 34 38 40 40 45 51 63 69 72 78 79 85
98 98 99 98 97 96 95 97 97 95 92 89 87 84 82 79 77 78 77 75 74 73 75 86 94 86 76 70 61 57 54 50 48 44 43 42 37 35 34 34 34 39 39 42 43 46 51 53 61 67 75 82 80 82
97 98 99 99 98 94 94 98 98 97 94 92 90 84 79 74 77 78 74 69 64 62 71 78 77 76 71 70 63 56 51 54 47 47 44 40 41 39 38 43 45 49 53 54 53 54 56 59 65 71 74 76 77 77
96 98 98 97 93 93 94 95 93 91 91 85 80 76 83 79 73 65 63 59 56 59 69 76 76 73 69 64 60 56 55 52 50 48 45 46 42 46 45 49 54 58 60 62 63 64 68 74 76 77 76 77 78 78
89 98 98 97 95 95 93 90 89 86 85 81 79 79 79 75 68 65 69 64 61 65 67 72 67 63 63 57 59 57 57 52 51 51 51 48 48 49 51 54 60 64 69 69 71 75 77 82 83 81 81 81 79 81
77 94 94 98 94 91 92 90 86 82 80 74 67 68 69 66 64 62 68 62 59 63 69 69 71 66 62 59 57 57 59 56 56 50 51 52 53 51 53 56 60 67 69 69 73 78 81 85 87 89 88 84 82 82
68 73 87 94 95 94 95 98 93 86 76 65 59 58 61 62 61 57 62 61 60 60 63 60 64 63 61 61 60 56 54 53 53 55 53 50 53 56 60 61 65 69 71 72 74 75 77 76 74 74 75 77 80 81
57 61 73 96 95 99 98 94 87 78 70 65 62 61 60 56 52 50 48 44 48 51 51 53 52 52 51 53 55 57 58 57 59 58 52 56 62 66 69 71 71 71 69 69 71 66 64 66 68 67 65 61 59 62
53 53 61 89 96 98 98 96 93 83 73 68 60 62 57 52 49 45 41 38 40 41 38 38 38 39 44 48 53 57 60 58 55 53 57 66 66 69 70 70 67 67 66 62 60 63 60 52 46 41 39 38 36 36
47 49 55 72 93 96 95 95 92 90 79 75 65 62 55 53 51 47 42 37 35 37 37 37 38 40 44 45 47 53 53 54 58 59 66 68 68 68 69 66 66 63 58 59 61 49 41 38 36 35 35 34 33 33
41 52 61 64 68 79 86 93 96 97 88 75 76 70 65 58 57 50 46 41 37 39 43 42 43 45 47 45 46 46 55 61 64 68 67 66 68 67 64 65 63 59 59 59 43 37 35 35 35 36 36 36 35 35
49 48 56 68 76 69 75 84 85 90 84 78 73 73 68 61 58 50 46 42 40 41 42 43 43 48 50 57 51 47 52 66 73 71 67 65 64 64 65 63 61 59 61 43 35 34 34 35 37 39 38 36 37 37
57 49 61 79 92 80 73 74 75 73 74 69 66 63 63 60 57 50 47 43 42 45 45 45 48 56 64 63 68 67 62 56 62 66 67 66 67 67 65 60 58 63 47 34 33 35 36 38 39 39 39 39 39 39
58 61 82 89 96 86 78 75 67 69 72 69 72 68 66 61 57 52 48 49 49 48 47 46 48 62 71 70 68 72 71 71 68 69 69 71 68 64 61 61 66 49 34 33 34 33 36 39 39 39 39 39 39 39
92 96 90 92 94 79 80 81 79 82 80 76 76 74 71 68 63 60 55 47 50 51 48 50 57 63 77 74 74 73 69 69 74 71 69 67 65 65 65 67 44 36 35 36 37 39 39 39 39 39 38 39 39 39
94 97 94 90 82 75 78 76 75 72 73 77 80 74 73 70 64 60 60 59 58 61 67 65 69 71 72 73 74 72 70 69 68 66 65 63 66 70 64 44 37 35 36 38 40 40 40 40 40 39 39 38 38 39
93 93 85 79 75 72 77 72 73 72 73 72 67 66 67 63 61 60 61 55 61 71 71 70 68 68 70 70 73 73 72 71 68 67 65 68 68 62 46 38 37 37 39 41 40 40 41 39 38 39 38 38 39 39
85 78 77 72 67 69 70 72 70 72 72 68 67 68 66 61 61 61 63 71 74 71 72 72 71 69 69 67 66 65 66 68 70 66 68 65 62 50 38 36 38 40 42 40 42 43 41 41 39 40 39 39 40 39
70 69 68 66 64 61 64 68 69 68 71 71 69 62 63 71 82 83 82 80 78 80 79 77 77 75 74 72 71 70 69 67 65 64 64 62 55 43 38 38 40 42 40 41 44 44 44 44 44 43 43 44 43 40
73 71 71 67 68 65 61 63 62 62 62 69 78 85 90 92 92 89 85 87 87 83 79 74 73 72 72 71 69 67 67 66 64 66 65 61 50 37 34 36 39 41 42 46 48 50 49 48 47 47 47 46 46 45
82 89 91 91 92 91 91 92 92 93 95 95 94 94 95 96 93 87 87 85 84 79 73 74 72 70 69 68 68 67 68 69 70 69 65 60 47 38 37 36 39 43 44 46 48 51 51 50 50 49 49 50 48 48
93 97 97 98 98 98 97 97 97 97 97 95 93 94 93 91 91 91 90 89 87 83 76 71 68 72 72 70 70 71 72 74 73 70 68 61 47 40 36 34 33 34 37 42 47 51 55 54 52 51 50 50 50 50
90 96 98 98 98 98 97 94 93 93 92 94 95 94 93 92 93 92 92 91 88 83 76 70 68 65 57 63 70 73 75 75 74 73 70 60 45 41 36 32 33 35 38 41 44 47 50 55 55 54 54 54 53 53
86 89 93 96 96 96 97 94 93 93 92 91 91 91 92 93 93 94 93 90 87 84 80 74 69 67 65 57 53 62 70 73 74 74 68 51 41 39 37 36 36 37 38 40 41 40 43 53 58 59 59 59 57 55
80 81 83 83 83 82 80 80 83 86 88 89 91 93 92 92 91 89 86 82 81 81 80 79 76 72 68 71 68 62 64 69 71 70 61 43 34 33 33 33 35 36 36 35 33 38 43 53 60 62 63 63 62 59
78 78 77 79 84 85 85 85 87 88 88 88 88 86 85 84 84 82 80 77 75 74 75 76 78 79 79 76 74 74 73 71 67 63 56 45 38 36 34 32 31 31 29 27 29 33 38 44 57 64 65 65 65 64
97 97 96 95 93 92 90 87 83 81 81 81 81 80 79 77 76 75 75 73 72 72 72 73 75 77 79 81 82 82 81 79 76 71 64 57 47 40 36 32 31 29 29 31 31 32 35 41 57 70 70 67 67 66

GFSWCAN_prec_cthk_144.txt.gz
RH
91 97 98 98 98 99 98 97 98 96 93 94 99 99 92 69 69 74 73 74 61 62 62 61 66 60 53 73 80 83 83 88 92 97 95 87 80 70 74 71 67 71 79 78 76 81 74 75 66 61 62 60 54 47
93 98 99 98 98 98 98 98 97 95 95 95 98 97 89 61 60 61 70 72 75 90 89 75 82 71 71 80 65 61 64 77 87 88 85 83 83 81 81 82 72 78 74 76 70 73 77 75 72 67 61 55 46 45
98 98 99 98 98 98 98 98 97 97 96 96 98 97 96 84 65 65 65 72 87 92 91 89 86 81 79 75 69 79 91 87 86 84 88 87 95 80 95 87 70 73 66 79 76 80 78 77 66 53 48 49 43 45
98 98 98 98 98 98 98 97 98 97 96 97 98 98 98 98 96 86 90 94 86 86 97 99 99 98 94 92 92 92 92 93 89 90 90 90 84 80 85 91 73 74 73 81 79 78 68 64 55 48 44 48 39 39
98 99 99 98 97 98 96 96 97 98 98 97 98 98 98 98 99 99 99 98 96 90 95 98 97 97 92 95 97 95 94 94 92 90 87 81 80 81 83 83 92 81 82 80 76 65 56 54 53 49 41 38 35 38
98 99 99 98 97 98 97 95 95 98 99 98 99 98 98 98 98 94 96 97 94 91 90 96 98 97 95 95 96 94 90 87 85 82 80 77 73 74 77 80 87 82 71 63 59 56 58 55 49 42 34 36 43 47
98 97 99 98 98 98 96 96 91 89 93 93 98 98 96 96 94 91 94 95 91 83 85 94 98 97 96 95 94 91 88 86 82 80 78 73 72 72 71 70 69 58 55 53 49 46 49 43 34 32 39 49 52 52
99 96 99 98 98 96 97 92 89 86 88 89 96 97 95 94 91 91 91 91 87 81 80 89 98 97 94 90 89 87 85 84 82 81 74 69 62 57 61 52 50 46 42 38 38 32 28 32 35 39 44 49 52 54
98 95 97 96 92 92 92 90 88 86 86 87 90 91 89 90 88 92 90 87 87 87 88 89 88 93 89 85 83 82 82 87 80 80 68 52 49 58 48 49 50 43 41 39 35 34 36 38 41 44 49 56 58 60
97 96 98 98 96 93 91 90 89 86 83 82 82 82 82 81 84 85 79 76 82 84 86 89 82 85 80 79 81 83 78 69 76 64 57 61 70 56 50 50 47 47 41 39 38 42 43 47 50 55 57 63 67 71
96 97 98 98 96 94 93 91 89 85 81 80 82 84 77 77 75 71 77 82 83 92 94 88 82 82 82 75 76 72 70 67 64 56 59 65 65 61 54 50 46 44 47 48 48 48 51 51 54 57 60 65 67 65
94 96 97 97 98 95 93 90 86 82 82 82 78 79 76 70 67 71 77 76 79 91 93 91 89 87 80 64 66 66 64 71 70 57 64 65 60 49 48 46 47 49 49 49 49 50 53 55 56 58 59 54 48 46
94 94 96 96 96 93 90 89 85 80 79 75 72 71 74 71 75 72 73 76 81 88 88 84 85 78 69 61 62 64 64 65 53 53 61 67 53 45 44 45 46 45 48 49 49 52 53 53 55 49 42 41 41 38
93 91 90 90 93 91 85 81 80 76 76 75 74 74 82 82 87 87 72 76 79 77 77 76 71 64 62 57 60 60 59 61 59 55 59 54 46 44 45 44 44 47 51 52 52 51 49 47 40 37 35 34 35 33
96 92 91 87 88 87 81 76 74 66 66 72 75 78 81 83 86 82 71 72 75 70 67 62 58 55 56 58 54 54 58 53 46 54 53 47 43 44 46 48 48 52 53 50 48 45 44 37 33 32 32 31 29 28
93 89 91 87 82 80 74 65 62 61 60 64 76 76 73 75 81 81 77 72 70 67 59 52 54 50 53 55 49 49 44 50 60 60 51 46 50 54 54 54 55 53 49 47 44 43 36 30 29 28 28 28 28 28
91 89 88 89 85 78 66 61 58 55 58 59 68 64 60 62 67 67 69 65 59 50 50 44 43 44 41 38 39 47 60 63 56 53 51 54 55 56 57 57 54 52 48 45 45 38 30 27 27 27 28 29 30 29
92 88 90 89 88 82 73 64 59 57 56 61 59 58 52 51 52 49 49 48 45 41 36 36 34 37 39 39 50 48 51 53 55 55 54 56 56 59 59 57 55 50 47 47 44 33 27 26 30 33 33 33 31 30
83 89 94 94 91 85 76 73 67 63 60 57 56 54 52 49 46 43 42 39 36 33 34 33 38 47 58 62 58 51 47 53 58 58 56 59 61 62 61 58 54 50 48 49 40 30 27 32 38 34 33 32 35 33
82 88 91 92 87 83 77 77 73 69 70 63 59 56 56 55 51 47 42 40 36 31 31 36 48 60 63 62 61 58 53 53 55 56 57 58 59 59 59 56 55 53 52 52 35 30 32 36 39 39 38 37 44 39
71 86 85 85 87 85 81 76 76 75 76 72 65 61 60 58 54 52 45 41 40 43 42 44 37 39 43 56 59 56 51 48 53 59 60 61 63 63 59 59 57 56 57 44 32 33 34 37 37 40 38 40 43 43
46 72 78 76 76 79 83 82 78 78 79 77 71 64 63 60 56 53 49 46 46 48 47 44 40 35 37 49 60 63 64 62 60 61 64 64 62 61 61 61 59 59 52 35 32 34 37 40 39 38 40 42 44 45
57 66 65 66 72 75 80 79 77 78 73 69 67 65 63 59 57 55 52 49 50 47 45 46 46 50 47 53 64 68 72 74 74 71 68 67 67 66 63 61 61 60 43 35 37 37 42 40 38 40 43 45 49 50
96 82 79 74 68 68 65 65 58 58 59 70 68 66 66 60 58 56 58 58 58 51 47 44 48 57 55 61 73 74 77 77 76 73 72 70 68 65 63 63 64 55 41 36 40 39 40 39 39 42 45 48 51 54
93 86 83 75 79 82 79 79 76 71 68 69 70 72 70 67 70 68 66 67 60 55 52 50 55 65 67 75 76 76 77 77 76 72 69 67 64 64 65 66 65 52 42 40 41 42 41 41 41 43 45 48 51 53
79 79 78 71 75 73 72 76 76 79 80 80 78 76 73 71 70 70 66 63 60 60 61 62 71 74 72 77 77 78 76 75 72 68 65 64 65 66 66 66 63 54 40 39 39 40 40 42 43 43 43 45 50 52
76 72 69 68 64 62 65 68 70 71 70 68 68 67 66 68 68 65 65 67 76 76 77 76 78 81 81 77 75 76 77 76 74 70 72 71 70 69 69 69 67 58 39 36 37 39 39 38 38 39 40 42 46 49
71 66 64 62 62 63 60 58 59 62 62 61 63 66 67 71 76 85 91 91 91 93 92 89 88 86 86 82 79 78 78 79 78 76 74 73 72 73 74 75 73 68 48 37 37 39 40 38 37 36 36 40 46 47
95 92 90 86 81 79 77 74 71 70 74 80 85 86 91 94 97 96 96 97 98 98 98 98 96 92 90 87 85 85 83 80 78 76 75 75 75 77 79 78 75 71 59 43 38 39 41 39 36 36 39 42 41 42
95 97 98 98 98 97 97 98 98 98 98 98 98 98 98 98 98 98 98 98 98 98 98 98 98 97 95 92 88 85 82 81 80 80 79 79 80 81 82 81 80 79 72 58 44 39 37 37 37 37 36 34 35 36
86 88 91 96 96 98 98 98 97 95 94 93 93 95 97 98 98 98 98 97 98 98 97 95 93 93 92 90 86 81 78 77 75 70 66 67 70 76 78 79 80 81 76 63 49 40 36 33 32 29 30 33 35 36
80 81 82 87 87 86 87 90 91 90 90 89 91 94 96 98 97 98 97 96 94 92 90 90 90 86 85 86 87 85 83 79 75 77 78 78 77 75 74 76 76 73 67 55 49 43 42 41 39 41 43 46 46 48
91 89 86 84 84 85 86 88 85 86 87 90 94 95 95 93 92 91 90 88 86 85 84 84 84 85 84 84 83 83 84 86 88 89 89 89 87 85 83 82 81 78 75 71 68 63 59 57 55 54 53 53 52 53